WW3TRG Weather Reports


time (UTC)temp
C
wind
direction
speed
KPH
gust
KPH
rain 1hr
cm
rain 24hr
cm
rain mn
cm
humidity
%
barometer
mb
20260506211755 18 146 0.0 4.8 0.00 0.53 0.53 92 1005.8
20260506211251 18 286 0.0 1.6 0.00 0.53 0.53 95 1005.7
20260506210749 17 169 4.8 6.4 0.00 0.53 0.53 95 1005.7
20260506210245 17 0 0.0 1.6 0.00 0.53 0.53 96 1005.6
20260506205742 17 198 4.8 8.0 0.00 0.53 0.53 96 1005.6
20260506205238 17 172 0.0 3.2 0.00 0.53 0.53 98 1005.5
20260506204735 16 120 3.2 6.4 0.00 0.53 0.53 98 1005.7
20260506204232 16 188 0.0 9.7 0.00 0.53 0.53 99 1005.9
20260506203731 16 191 3.2 4.8 0.00 0.53 0.53 99 1005.6
20260506203227 16 234 0.0 0.0 0.00 0.53 0.53 99 1005.8
20260506202725 16 264 3.2 3.2 0.00 0.53 0.53 99 1005.7
20260506202221 16 166 0.0 1.6 0.00 0.53 0.53 99 1005.8
20260506201718 16 157 0.0 1.6 0.00 0.53 0.53 99 1005.7
20260506201215 16 180 0.0 6.4 0.00 0.53 0.53 99 1005.5
20260506200712 16 172 0.0 3.2 0.00 0.53 0.53 99 1005.8
20260506200209 16 157 0.0 3.2 0.00 0.53 0.53 99 1005.4
20260506195705 16 180 0.0 1.6 0.00 0.53 0.53 99 1005.6
20260506195201 16 120 0.0 3.2 0.00 0.53 0.53 99 1005.7
20260506194659 16 149 0.0 0.0 0.00 0.53 0.53 99 1006.0
20260506194155 16 154 4.8 4.8 0.00 0.53 0.53 99 1005.9
20260506193653 16 97 0.0 0.0 0.00 0.53 0.53 99 1006.0
20260506193149 16 151 0.0 0.0 0.00 0.53 0.53 99 1005.9
20260506192646 16 195 3.2 4.8 0.00 0.53 0.53 99 1006.0
20260506192142 16 285 0.0 0.0 0.00 0.53 0.53 99 1005.9
20260506191640 16 90 0.0 3.2 0.00 0.53 0.53 99 1006.0
20260506191135 16 324 0.0 4.8 0.00 0.53 0.53 99 1006.0
20260506190633 16 206 0.0 4.8 0.00 0.53 0.53 99 1006.0
20260506190130 16 188 0.0 0.0 0.00 0.53 0.53 99 1006.2
20260506185627 16 188 0.0 1.6 0.00 0.53 0.53 99 1006.3
20260506185123 15 174 0.0 3.2 0.00 0.53 0.53 99 1006.3
20260506184620 16 160 0.0 1.6 0.00 0.53 0.53 99 1006.4
20260506184118 15 70 0.0 3.2 0.00 0.53 0.53 99 1006.5
20260506183614 15 187 1.6 1.6 0.05 0.53 0.53 99 1006.2
20260506183110 15 184 3.2 3.2 0.00 0.51 0.51 99 1006.8
20260506182608 15 198 0.0 3.2 0.00 0.51 0.51 99 1006.5
20260506182105 15 15 0.0 3.2 0.00 0.51 0.51 99 1006.6
20260506181603 15 180 0.0 0.0 0.05 0.51 0.51 99 1006.5
20260506181059 16 199 3.2 4.8 0.13 0.51 0.51 99 1006.6
20260506180556 15 90 0.0 0.0 0.05 0.51 0.51 99 1006.6
20260506180053 15 0 0.0 0.0 0.13 0.51 0.51 99 1006.6
20260506175549 15 270 0.0 1.6 0.05 0.48 0.48 99 1006.9
20260506175045 15 78 0.0 3.2 0.05 0.48 0.48 99 1007.0
20260506174544 15 261 0.0 0.0 0.18 0.48 0.48 99 1006.5
20260506174039 15 192 0.0 3.2 0.13 0.46 0.46 99 1006.8
20260506173538 15 262 0.0 3.2 0.00 0.46 0.46 99 1006.5
20260506173034 15 294 0.0 3.2 0.05 0.46 0.46 99 1006.6
20260506172531 16 90 0.0 3.2 0.05 0.46 0.46 99 1006.5
20260506172022 16 270 0.0 0.0 0.05 0.43 0.43 99 1006.8
20260506171520 16 262 0.0 0.0 0.05 0.43 0.43 99 1006.6
20260506171017 15 341 0.0 3.2 0.13 0.43 0.43 99 1006.9
20260506170514 15 331 0.0 3.2 0.05 0.43 0.43 99 1007.2
20260506170011 15 311 3.2 3.2 0.13 0.41 0.41 99 1007.1
20260506165510 15 189 4.8 4.8 0.18 0.41 0.41 99 1006.9
20260506165000 15 276 3.2 3.2 0.13 0.38 0.38 99 1006.9
20260506164457 15 276 1.6 1.6 0.00 0.38 0.38 99 1006.8
20260506163955 15 340 0.0 3.2 0.05 0.38 0.38 99 1006.9
20260506163450 15 35 0.0 0.0 0.05 0.38 0.38 99 1006.8
20260506162944 15 0 0.0 3.2 0.05 0.36 0.36 99 1006.9
20260506162443 15 206 0.0 3.2 0.05 0.36 0.36 99 1007.2
20260506161940 16 174 0.0 0.0 0.13 0.36 0.36 99 1007.1
20260506161438 16 120 0.0 0.0 0.00 0.33 0.33 99 1007.0
20260506160935 16 324 3.2 3.2 0.00 0.33 0.33 99 1006.9
20260506160432 16 74 0.0 8.0 0.00 0.33 0.33 99 1006.9
20260506155929 16 276 0.0 3.2 0.48 0.33 0.33 99 1007.0
20260506155426 16 348 0.0 3.2 0.48 0.33 0.33 99 1006.8
20260506153548 16 132 0.0 3.2 0.23 0.25 0.25 99 1007.5
20260506153046 16 278 0.0 1.6 0.23 0.25 0.25 99 1007.9
20260506152542 16 120 0.0 3.2 0.43 0.20 0.20 99 1008.0
20260506152041 16 120 0.0 4.8 0.43 0.20 0.20 99 1008.0
20260506151538 16 0 0.0 0.0 0.00 0.15 0.15 99 1007.9
20260506151035 16 20 0.0 0.0 0.13 0.15 0.15 99 1007.8
20260506150532 16 348 0.0 0.0 0.13 0.15 0.15 98 1007.9
20260506150029 16 90 0.0 0.0 0.00 0.13 0.13 98 1007.8
20260506145525 16 23 0.0 0.0 0.00 0.13 0.13 98 1007.7
20260506145023 16 99 0.0 0.0 0.00 0.13 0.13 98 1007.6
20260506144519 16 99 0.0 0.0 0.05 0.13 0.13 97 1007.7
20260506144017 16 99 0.0 1.6 0.13 0.10 0.10 97 1007.7
20260506143514 16 97 0.0 0.0 0.13 0.10 0.10 97 1007.7
20260506143013 16 98 0.0 0.0 0.13 0.10 0.10 97 1007.8
20260506142510 16 90 0.0 3.2 0.18 0.08 0.08 97 1007.9
20260506142008 16 157 0.0 0.0 0.18 0.08 0.08 96 1008.0
20260506141506 17 157 0.0 0.0 0.13 0.05 0.05 96 1008.0
20260506141004 16 186 1.6 3.2 0.05 0.05 0.05 95 1008.1
20260506140501 16 90 0.0 3.2 0.00 0.03 0.03 95 1007.8
20260506135957 16 103 0.0 0.0 0.05 0.03 0.03 95 1008.0
20260506135455 17 103 0.0 0.0 0.05 0.03 0.03 95 1007.9
20260506134950 17 103 0.0 0.0 0.00 0.03 0.03 94 1007.7
20260506134447 17 99 0.0 0.0 0.05 0.03 0.03 93 1007.9
20260506133944 17 180 0.0 0.0 0.05 0.03 0.03 93 1007.8
20260506133441 16 173 0.0 4.8 0.00 0.00 0.00 93 1007.9
20260506132937 16 106 0.0 0.0 0.00 0.00 0.00 94 1008.1
20260506132435 17 114 0.0 1.6 0.00 0.00 0.00 93 1007.9
20260506131932 16 188 3.2 3.2 0.00 0.00 0.00 93 1008.3
20260506131428 17 194 0.0 3.2 0.00 0.00 0.00 93 1008.1
20260506130926 17 98 0.0 0.0 0.00 0.00 0.00 92 1008.0
20260506130422 17 164 0.0 0.0 0.05 0.00 0.00 91 1008.4
20260506125920 17 261 0.0 3.2 0.05 0.00 0.00 90 1008.1
20260506125418 17 180 0.0 0.0 0.00 0.00 0.00 88 1008.2
20260506124916 17 90 1.6 4.8 0.00 0.00 0.00 86 1008.3
20260506124413 17 174 4.8 4.8 0.00 0.00 0.00 85 1008.2
20260506123911 17 180 0.0 1.6 0.00 0.00 0.00 86 1007.9
20260506123409 17 126 0.0 1.6 0.00 0.00 0.00 85 1008.0
20260506122906 18 289 0.0 3.2 0.00 0.00 0.00 84 1008.0
20260506122402 18 35 0.0 3.2 0.00 0.00 0.00 82 1007.9
20260506121901 18 32 3.2 3.2 0.00 0.00 0.00 83 1007.8
20260506121357 18 8 0.0 1.6 0.00 0.00 0.00 84 1007.6
20260506120854 18 145 0.0 1.6 0.00 0.00 0.00 83 1007.7
20260506120352 18 111 0.0 9.7 0.00 0.00 0.00 81 1007.8
20260506115849 18 180 0.0 4.8 0.00 0.00 0.00 82 1007.9
20260506115347 17 174 1.6 1.6 0.00 0.00 0.00 83 1007.9
20260506114845 17 15 0.0 3.2 0.00 0.00 0.00 85 1007.8
20260506114342 17 165 0.0 0.0 0.00 0.00 0.00 85 1007.7
20260506113841 18 180 1.6 6.4 0.00 0.00 0.00 83 1007.5
20260506113338 17 40 3.2 3.2 0.00 0.00 0.00 84 1007.5
20260506112835 17 199 4.8 6.4 0.00 0.00 0.00 84 1007.5
20260506112332 17 195 0.0 0.0 0.00 0.00 0.00 87 1007.7
20260506111829 16 28 3.2 3.2 0.00 0.00 0.00 89 1007.6
20260506111328 16 97 0.0 3.2 0.00 0.00 0.00 88 1007.8
20260506110825 16 270 0.0 0.0 0.00 0.00 0.00 88 1007.7
20260506110321 17 143 0.0 0.0 0.00 0.00 0.00 87 1007.3
20260506105819 16 180 0.0 3.2 0.00 0.00 0.00 87 1007.7
20260506105315 16 90 0.0 8.0 0.00 0.00 0.00 89 1007.3
20260506104813 15 199 3.2 3.2 0.00 0.00 0.00 92 1007.3
20260506104310 15 152 4.8 4.8 0.00 0.00 0.00 94 1007.3
20260506103808 15 116 4.8 4.8 0.00 0.00 0.00 94 1007.2
20260506103305 14 195 0.0 0.0 0.00 0.00 0.00 94 1007.3
20260506102802 14 120 0.0 0.0 0.00 0.00 0.00 94 1007.1
20260506102300 13 90 0.0 3.2 0.00 0.00 0.00 94 1007.1
20260506101757 13 90 0.0 3.2 0.00 0.00 0.00 94 1007.2
20260506101253 13 126 0.0 3.2 0.00 0.00 0.00 94 1007.3
20260506100751 13 120 0.0 3.2 0.00 0.00 0.00 94 1007.1
20260506100249 13 106 0.0 0.0 0.00 0.00 0.00 94 1007.1
20260506095748 13 144 0.0 3.2 0.00 0.00 0.00 94 1007.2
20260506095244 13 90 0.0 1.6 0.00 0.00 0.00 94 1007.3
20260506094740 13 140 0.0 3.2 0.00 0.00 0.00 94 1007.4
20260506094239 13 154 0.0 0.0 0.00 0.00 0.00 94 1007.4
20260506093737 13 99 0.0 0.0 0.00 0.00 0.00 93 1007.3
20260506093234 13 75 0.0 1.6 0.00 0.00 0.00 93 1007.1
20260506092732 13 151 0.0 3.2 0.00 0.00 0.00 93 1007.2
20260506092230 13 173 0.0 1.6 0.00 0.00 0.00 94 1007.0
20260506091727 13 180 0.0 1.6 0.00 0.00 0.00 94 1007.4
20260506091224 13 69 0.0 0.0 0.00 0.00 0.00 94 1007.2
20260506090722 13 69 0.0 1.6 0.00 0.00 0.00 94 1007.3
20260506090218 13 125 3.2 3.2 0.00 0.00 0.00 94 1007.1
20260506085715 13 33 0.0 3.2 0.00 0.00 0.00 94 1007.1
20260506085212 13 131 0.0 3.2 0.00 0.00 0.00 94 1007.1
20260506084708 13 99 0.0 0.0 0.00 0.00 0.00 94 1007.2
20260506084204 13 90 0.0 1.6 0.00 0.00 0.00 94 1007.6
20260506083702 13 120 0.0 3.2 0.00 0.00 0.00 93 1007.4
20260506083159 13 131 0.0 0.0 0.00 0.00 0.00 93 1007.2
20260506082657 13 106 0.0 3.2 0.00 0.00 0.00 94 1007.4
20260506082156 13 145 0.0 0.0 0.00 0.00 0.00 93 1007.6
20260506081655 13 145 0.0 1.6 0.00 0.00 0.00 93 1007.3
20260506081152 13 114 0.0 3.2 0.00 0.00 0.00 93 1007.5
20260506080650 13 111 1.6 1.6 0.00 0.00 0.00 93 1007.3
20260506080146 13 114 0.0 0.0 0.00 0.00 0.00 92 1007.4
20260506073130 13 180 0.0 1.6 0.00 0.00 0.00 93 1007.6
20260506072627 13 114 0.0 1.6 0.00 0.00 0.00 92 1007.7
20260506072125 13 99 0.0 0.0 0.00 0.00 0.00 91 1007.6
20260506071622 13 66 0.0 3.2 0.00 0.00 0.00 90 1007.6
20260506071120 14 114 0.0 1.6 0.00 0.00 0.00 90 1007.7
20260506070617 14 198 0.0 3.2 0.00 0.00 0.00 90 1007.5
20260506070114 14 106 0.0 1.6 0.00 0.00 0.00 91 1007.7
20260506062051 14 195 0.0 3.2 0.00 0.00 0.00 88 1007.8
20260506061547 14 187 0.0 0.0 0.00 0.00 0.00 88 1007.9
20260506061045 14 173 1.6 1.6 0.00 0.00 0.00 89 1008.2
20260506060543 14 165 0.0 1.6 0.00 0.00 0.00 88 1008.2
20260506051012 15 162 0.0 3.2 0.00 0.00 0.00 84 1008.7
20260506050509 15 180 0.0 3.2 0.00 0.00 0.00 84 1008.4
20260506045000 14 180 0.0 3.2 0.00 0.00 0.00 85 1008.4
20260506044458 14 185 0.0 3.2 0.00 0.00 0.00 85 1008.8
20260506043954 14 195 1.6 1.6 0.00 0.00 0.00 85 1008.7
20260506043451 14 180 3.2 3.2 0.00 0.00 0.00 85 1008.6
20260506042949 14 199 3.2 3.2 0.00 0.00 0.00 85 1008.6
20260506042449 14 180 0.0 0.0 0.00 0.00 0.00 85 1008.5
20260506041946 14 200 0.0 3.2 0.00 0.00 0.00 84 1008.6
20260506041444 14 188 0.0 0.0 0.00 0.00 0.00 84 1008.5
20260506040941 14 203 1.6 1.6 0.00 0.00 0.00 84 1008.6
20260506040438 14 195 0.0 1.6 0.00 0.00 0.00 84 1008.6
20260506035934 15 180 0.0 3.2 0.00 0.05 0.05 85 1008.5
20260506035432 14 180 1.6 1.6 0.00 0.05 0.05 84 1008.4
20260506034928 15 191 1.6 3.2 0.00 0.05 0.05 84 1008.5
20260506034426 15 180 1.6 1.6 0.00 0.05 0.05 83 1008.6
20260506033923 15 180 0.0 1.6 0.00 0.05 0.05 83 1008.5
20260506033420 15 180 0.0 3.2 0.00 0.05 0.05 83 1008.8
20260506032917 15 195 0.0 1.6 0.00 0.05 0.05 83 1008.6
20260506032414 15 173 0.0 1.6 0.00 0.05 0.05 82 1008.4
20260506031910 15 157 0.0 0.0 0.00 0.05 0.05 82 1008.6
20260506031408 15 206 0.0 3.2 0.00 0.05 0.05 82 1008.5
20260506030905 15 187 0.0 1.6 0.00 0.05 0.05 82 1008.3
20260506030403 15 203 0.0 1.6 0.00 0.05 0.05 81 1008.2
20260506025900 15 180 1.6 1.6 0.00 0.05 0.05 81 1008.4
20260506025356 15 172 0.0 0.0 0.00 0.05 0.05 81 1008.3
20260506024854 15 151 1.6 3.2 0.00 0.05 0.05 80 1008.5
20260506024351 16 180 0.0 1.6 0.00 0.05 0.05 80 1008.5
20260506023846 16 166 0.0 0.0 0.00 0.05 0.05 80 1008.5
20260506023343 16 173 0.0 1.6 0.00 0.05 0.05 79 1008.4
20260506022840 16 188 0.0 0.0 0.00 0.05 0.05 79 1008.4
20260506022338 16 180 0.0 1.6 0.00 0.05 0.05 79 1008.2
20260506021836 16 180 0.0 0.0 0.00 0.05 0.05 79 1008.7
20260506021332 16 187 0.0 1.6 0.00 0.05 0.05 79 1008.4
20260506020829 16 180 0.0 0.0 0.00 0.05 0.05 78 1008.6
20260506020327 16 203 0.0 0.0 0.00 0.05 0.05 78 1008.3
20260506015824 16 99 0.0 3.2 0.00 0.05 0.05 76 1008.2
20260506015322 17 180 0.0 0.0 0.00 0.05 0.05 75 1008.2
20260506014818 17 215 0.0 1.6 0.00 0.05 0.05 75 1008.2
20260506014315 17 106 0.0 3.2 0.00 0.05 0.05 75 1008.1
20260506013812 17 117 0.0 0.0 0.00 0.05 0.05 75 1008.3
20260506013309 17 185 1.6 1.6 0.00 0.05 0.05 75 1008.4
20260506012806 17 180 1.6 3.2 0.00 0.05 0.05 75 1008.1
20260506012307 17 165 0.0 0.0 0.00 0.05 0.05 73 1007.9
20260506011800 18 180 0.0 0.0 0.00 0.05 0.05 73 1008.0
20260506011256 17 173 0.0 0.0 0.00 0.05 0.05 73 1007.8
20260506010754 18 160 0.0 0.0 0.00 0.05 0.05 72 1007.9
20260506010252 18 160 0.0 3.2 0.00 0.05 0.05 72 1007.7
20260506005749 18 180 0.0 0.0 0.00 0.05 0.05 72 1007.4
20260506005245 18 172 0.0 1.6 0.00 0.05 0.05 70 1007.6
20260506004741 18 188 0.0 3.2 0.00 0.05 0.05 70 1007.3
20260506004239 18 140 3.2 3.2 0.00 0.05 0.05 69 1007.6
20260506003735 18 95 0.0 3.2 0.00 0.05 0.05 67 1007.5
20260506003231 19 113 3.2 3.2 0.00 0.05 0.05 67 1007.5
20260506002727 19 251 0.0 3.2 0.00 0.05 0.05 65 1007.5
20260506002224 20 180 0.0 1.6 0.00 0.05 0.05 65 1007.2
20260506001720 20 352 0.0 1.6 0.00 0.05 0.05 64 1007.2
20260506001217 20 106 0.0 0.0 0.00 0.05 0.05 59 1007.1
20260506000714 21 188 0.0 0.0 0.00 0.05 0.05 59 1007.0
20260506000212 21 0 0.0 0.0 0.00 0.05 0.05 58 1006.9
20260505235709 22 103 0.0 1.6 0.00 0.05 0.05 54 1007.0
20260505235207 22 180 0.0 0.0 0.00 0.05 0.05 52 1007.0
20260505234703 22 194 0.0 0.0 0.00 0.05 0.05 50 1007.1
20260505234200 23 66 0.0 4.8 0.00 0.05 0.05 48 1007.0
20260505233657 23 25 4.8 6.4 0.00 0.05 0.05 48 1006.8
20260505233155 23 150 0.0 3.2 0.00 0.05 0.05 50 1006.8
20260505232652 23 165 0.0 4.8 0.00 0.05 0.05 48 1006.6
20260505232150 23 215 0.0 3.2 0.00 0.05 0.05 48 1007.0
20260505231646 23 0 0.0 4.8 0.00 0.05 0.05 49 1006.8
20260505231145 24 212 3.2 3.2 0.00 0.05 0.05 44 1006.8
20260505230643 25 340 4.8 8.0 0.00 0.05 0.05 43 1006.6
20260505230139 24 270 0.0 4.8 0.00 0.05 0.05 45 1006.8
20260505225635 25 216 0.0 4.8 0.00 0.05 0.05 45 1006.5
20260505225132 25 288 8.0 14.5 0.00 0.05 0.05 42 1006.5
20260505224628 25 132 3.2 3.2 0.00 0.05 0.05 44 1006.3
20260505224126 25 180 4.8 12.9 0.00 0.05 0.05 41 1006.1
20260505223623 25 281 0.0 4.8 0.00 0.05 0.05 42 1006.3
20260505223119 26 192 0.0 6.4 0.00 0.05 0.05 41 1006.2
20260505222615 26 222 4.8 4.8 0.00 0.05 0.05 41 1006.4
20260505222112 26 151 0.0 4.8 0.00 0.05 0.05 46 1006.4
20260505221609 26 5 3.2 4.8 0.00 0.05 0.05 41 1006.3
20260505221105 26 171 0.0 3.2 0.00 0.05 0.05 45 1006.2
20260505220603 26 99 0.0 4.8 0.00 0.05 0.05 44 1006.2
20260505220100 26 102 0.0 9.7 0.00 0.05 0.05 39 1006.3
20260505215558 26 105 0.0 14.5 0.00 0.05 0.05 40 1006.0
20260505215055 26 270 3.2 14.5 0.00 0.05 0.05 42 1006.0
20260505214554 26 183 0.0 8.0 0.00 0.05 0.05 41 1006.0
20260505214050 26 188 0.0 0.0 0.00 0.05 0.05 44 1006.2
20260505213548 26 194 0.0 6.4 0.00 0.05 0.05 41 1006.2
20260505213044 27 270 0.0 4.8 0.00 0.05 0.05 40 1006.2
20260505212540 27 318 4.8 9.7 0.00 0.05 0.05 38 1006.0